Location: Ceske Budejovice
(48.9830°N, 14.4670°E)
Time: 01:55:06
(UTC+01:00)

ISS - Visible Passes

Search period start: 23 March 2019 00:00
Search period end: 02 April 2019 01:00
Orbit: 406 x 411 km, 51.6° (Epoch: 23 March)

Date Brightness Start Highest point End Pass type
(mag) Time Alt. Az. Time Alt. Az. Time Alt. Az.
23 Mar -3.3 20:22:34 10° WSW 20:25:12 53° SW 20:25:12 53° SW visible
24 Mar -3.6 19:31:37 10° SW 19:34:50 51° SSE 19:36:39 22° E visible
24 Mar -1.3 21:08:09 10° W 21:09:25 21° W 21:09:25 21° W visible
25 Mar -3.6 20:16:59 10° W 20:20:17 69° NNW 20:20:42 59° NE visible
26 Mar -3.9 19:25:52 10° WSW 19:29:10 90° ESE 19:31:52 15° ENE visible
26 Mar -1.9 21:02:41 10° WNW 21:04:37 30° WNW 21:04:37 30° WNW visible
27 Mar -3.2 20:11:29 10° W 20:14:43 53° N 20:15:40 37° NE visible
27 Mar -0.4 21:48:14 10° WNW 21:48:24 11° WNW 21:48:24 11° WNW visible
28 Mar -3.4 19:20:16 10° W 19:23:33 62° NNW 19:26:40 11° ENE visible
28 Mar -2.3 20:57:06 10° WNW 20:59:24 38° NW 20:59:24 38° NW visible
29 Mar -3.2 20:05:55 10° WNW 20:09:09 51° N 20:10:20 32° ENE visible
29 Mar -0.7 21:42:34 10° WNW 21:43:04 14° WNW 21:43:04 14° WNW visible
30 Mar -3.2 19:14:41 10° W 19:17:56 51° N 19:21:10 10° ENE visible
30 Mar -2.9 20:51:25 10° WNW 20:53:57 49° NW 20:53:57 49° NW visible
31 Mar -3.5 21:00:14 10° WNW 21:03:31 60° NNE 21:04:50 31° E visible
31 Mar -0.9 22:36:53 10° WNW 22:37:33 15° W 22:37:33 15° W visible
01 Apr -3.2 20:09:02 10° WNW 20:12:17 52° N 20:15:31 10° E visible
01 Apr -3.3 21:45:39 10° WNW 21:48:25 55° W 21:48:25 55° W visible
